THORAD AGENA D DEB, 4149

Orbit data source: Space-Track

THORAD AGENA D DEB, 4149 is space debris in LEO originally from a launch on Tue, 30 Sep 1969 UTC launched from the Air Force Western Test Range (AFWTR). Debris objects in space refer to the collection of defunct objects orbiting the Earth. Examples of debris include non-operational satellites, rocket bodies, and fragments generated from explosions, collisions, or faulty payload assembly.

Loading next visibility...
Identifier
4149, 1969-082T
Orbit
LEO
Country
Flag of USUS
Related business
Manufacturer
Unknown
Mission
Spacecraft
Bus & Motor
Unknown
Mass
Unknown
Launch date (UTC)
1969-09-30 (57 years ago)
Launch vehicle
Unknown
Launch site
Air Force Western Test Range (AFWTR)
Object type
Payload
Rocket body
Debris
Shape & HBR
Unknown shape, 0.1 m
Radar Cross Section
Medium (>0.1 m² and <1 m²)

Expand to show TLE details & history
Last TLE update: 2 days ago

TLE from 2 days ago
0 THORAD AGENA D DEB
1  4149U 69082T   26171.36036941  .00000333  00000-0  18107-3 0  9991
2  4149  70.3054 293.6613 0034483  55.0202 305.4147 14.19896463919010
Epoch: 2026-06-20T08:38Z
TLE epoch observation values (Epoch: 2026-06-20T08:38:55.917Z)
Latitude
-0.00006°
Longitude
-104.64782°
Altitude
813.722 km
Speed
7.454 km/s
True Right ascension
19h 34m 38s
True Declination
0° 00' 00"
Sunlit
Object was in full shadow at epoch
Visualization orbit readout
Latitude
Unknown
Longitude
Unknown
Altitude
Unknown
Speed
Unknown
Apparent Right ascension
Unknown
Apparent Declination
Unknown
Sunlit
N/A
Visualization observer readout
Local Sidereal Time
03:44:48
Azimuth
Unknown
Elevation
Unknown
Doppler factor
Unknown
Orbital elements
Apogee altitude
848.527 km
Perigee altitude
798.858 km
Semi-major axis
7,201.829 km
Eccentricity
0.00345
Inclination
70.3054°
RAAN
293.6613°
Arg. of periapsis
55.0202°
True anomaly
305.09186°
Mean anomaly
305.4147°
Eccentric anomaly
305.25336°
Mean motion
3.55123 °/min
Orbital period
101.37 mins
BSTAR
0.00018107

Documentation

Showing up to 5 results
|